Regional Weather Roundup
Issued by NWS

Home | Current Version | Previous Version | Graphics & Text | Print | Product List | Glossary On
Versions: 1 2 3 4 5 6 7 8 9 10 11 12 13 14 15 16 17 18 19 20 21 22 23 24 25 26 27 28 29 30 31 32 33 34 35 36 37 38 39 40 41 42 43 44 45 46 47 48 49 50
000
ASUS43 KLOT 311608
RWRIL

ILLINOIS REGIONAL WEATHER ROUNDUP
NATIONAL WEATHER SERVICE CHICAGO/ROMEOVILLE IL
1100 AM CDT FRI JUL 31 2015

NOTE: "FAIR" INDICATES FEW OR NO CLOUDS BELOW 12,000 FEET WITH NO
SIGNIFICANT WEATHER AND/OR OBSTRUCTIONS TO VISIBILITY.

* THESE STATIONS ARE NOT UNDER NWS QUALITY CONTROL. THEY ALSO MAY NOT
  REPORT WEATHER SUCH AS PRECIPITATION OR FOG.

ILZ001-002-007-009-015-016-024-311700-
NORTHWEST ILLINOIS

CITY           SKY/WX    TMP DP  RH WIND       PRES   REMARKS
MOLINE         SUNNY     85  61  44 NW10      30.07F HX  85
STERLING*      SUNNY     82  64  54 NW14      30.03S HX  84
SAVANNA*       SUNNY     82  59  44 NW12G18   30.05F HX  82
$$

ILZ003-004-008-010-011-017-018-311700-
NORTH CENTRAL ILLINOIS

CITY           SKY/WX    TMP DP  RH WIND       PRES   REMARKS
ROCKFORD       SUNNY     83  60  45 W15G21    30.04S HX  83
FREEPORT*      SUNNY     81  62  51 W15       30.06S HX  82
ROCHELLE*      SUNNY     81  61  51 NW13G18   30.05S HX  81
DE KALB*       MOSUNNY   80  63  54 W14G20    30.04S HX  81
PERU*          SUNNY     80  67  63 NW13      30.06R HX  82
$$

ILZ005-006-012>014-019>023-311700-
NORTHEAST ILLINOIS

CITY           SKY/WX    TMP DP  RH WIND       PRES   REMARKS
CHICAGO-OHARE  MOSUNNY   83  59  44 NW15G25   30.00S HX  83
CHICAGO-MIDWAY MOSUNNY   84  64  50 NW14      30.00S HX  85
AURORA         SUNNY     81  66  60 NW12      30.03S HX  83
LANSING*       PTSUNNY   83  64  51 W13G21    30.00F HX  84
JOLIET*        MOSUNNY   83  69  61 W7G17     30.02S HX  87
WAUKEGAN       SUNNY     81  57  43 W10G16    29.98F HX  81
DUPAGE AIRPORT SUNNY     82  61  48 NW14      30.02S HX  83
KANKAKEE*      SUNNY     83  70  64 W10       30.04F HX  88
WHEELING       SUNNY     83  56  39 NW15G22   30.01S HX  82
MORRIS*        MOSUNNY   82  69  65 NW13      30.02S HX  85
ROMEOVILLE*    MOSUNNY   81  66  59 NW13G18   30.02S HX  83
NORTHERLY ISL    N/A     82  61  48 NW15        N/A  HX  83
$$

LMZ740>746-311700-
SOUTHERN LAKE MICHIGAN

STATION/POSITION SKY/WX   TEMP    WIND        PRES    VSBY  WAVE
                          AIR SEA DIR/SP/G                  HT/PER
                          (F)     (DEG/KT/KT) (MB)    (MI)  (FT/S)
HARRISON CRIB              77     260/ 14/ 16   N/A
BURNHAM HARBOR             82     300/  7/ 16   N/A
CALUMET HARBOR             81     260/  3/ 10   N/A
BURNS HARBOR               78     240/  9/ 13 1016.3F
MICHIGAN CITY              76     210/ 13/ 15   N/A
MICHIGAN CITY 6N           75 74  280/  6/  8   N/A           2/ 3
ST. JOSEPH                 73 74  280/ 10/ 12   N/A           2/ 4
$$

ILZ025>027-034>036-040-047-049-050-058-095>099-311700-
WEST-CENTRAL ILLINOIS

CITY           SKY/WX    TMP DP  RH WIND       PRES   REMARKS
QUINCY         SUNNY     84  66  54 NW10      30.12S HX  86
GALESBURG*     SUNNY     81  69  67 NW8       30.09F HX  84
MACOMB*        SUNNY     82  67  59 NW10      30.12F HX  85
JACKSONVILLE*  SUNNY     85  68  56 NW7       30.11S HX  88
PITTSFIELD*    SUNNY     84  65  52 W7        30.13S HX  86
$$

ILZ028>032-037-038-041>044-048-051>054-059>061-311700-
CENTRAL ILLINOIS

CITY           SKY/WX    TMP DP  RH WIND       PRES   REMARKS
PONTIAC        SUNNY     82  72  72 W10       30.06S HX  87
BLOOMINGTON    SUNNY     83  69  62 W13       30.09F HX  86
DECATUR        SUNNY     86  68  54 VRB7      30.09F HX  89
PEORIA         SUNNY     86  68  54 NW7       30.08S HX  89
LACON*         SUNNY     82  68  62 W8        30.05S HX  85
LINCOLN*       SUNNY     86  67  52 W8        30.08S HX  89
SPRINGFIELD    SUNNY     85  68  56 NW13      30.10F HX  88
TAYLORVILLE    SUNNY     82  70  65 NW7       30.11S HX  86
$$

ILZ033-039-045-046-055>057-062-063-311700-
EAST-CENTRAL ILLINOIS

CITY           SKY/WX    TMP DP  RH WIND       PRES   REMARKS
CHAMPAIGN      SUNNY     83  69  62 W10       30.08F HX  86
DANVILLE*      SUNNY     82  71  69 W9        30.05S HX  86
RANTOUL*       SUNNY     86  72  62 W9        30.07S HX  91
MATTOON        SUNNY     85  67  54 NW10      30.09S HX  87
PARIS*         SUNNY     83  71  65 NW7       30.09S HX  88
$$

ILZ079-100>102-311700-
SOUTHWEST ILLINOIS

CITY           SKY/WX    TMP DP  RH WIND       PRES   REMARKS
ALTON          SUNNY     82  66  57 W10       30.13S HX  85
BELLEVILLE     SUNNY     86  69  57 VRB6      30.11S HX  89
CAHOKIA*       SUNNY     89  62  40 N8        30.12S HX  89
SPARTA*        SUNNY     84  68  58 NW5       30.13S HX  87
$$

ILZ064>066-069>071-074>076-080>082-084>086-088>090-092>094-311700-
SOUTH-CENTRAL ILLINOIS

CITY           SKY/WX    TMP DP  RH WIND       PRES   REMARKS
CARBONDALE     SUNNY     84  68  58 NW5       30.12S HX  87
CAIRO*         SUNNY     83  71  65 NE5       30.12S HX  88
EFFINGHAM*     SUNNY     84  62  46 NW6       30.11S HX  85
MARION         SUNNY     84  66  54 N7        30.13S HX  86
MT. VERNON     SUNNY     84  64  51 N6        30.12S HX  86
CENTRALIA*     SUNNY     84  64  49 NW10      30.12R HX  85
SALEM*         SUNNY     85  67  53 NW8       30.11F HX  88
METROPOLIS*    SUNNY     83  71  66 N3        30.12S HX  88
$$

ILZ067-068-072-073-078-083-087-091-311700-
SOUTHEAST ILLINOIS

CITY           SKY/WX    TMP DP  RH WIND       PRES   REMARKS
LAWRENCEVILLE  SUNNY     85  64  49 N7        30.09F HX  86
FLORA*         SUNNY     83  68  58 NW5       30.10F HX  86
FAIRFIELD*     SUNNY     83  69  63 CALM      30.10S HX  87
HARRISBURG*    SUNNY     83  67  58 N6        30.12S HX  86
ROBINSON*      SUNNY     82  65  56 NW3       30.10F HX  84
CARMI*         SUNNY     83  65  54 CALM      30.10S HX  85
$$

ABBREVIATIONS USED IN REMARKS
   TC - TEMPERATURE IN CELSIUS
  WCI - WIND CHILL INDEX
   HX - HEAT INDEX
  VSB - VISIBILITY
$$




USA.gov is the U.S. government's official web portal to all federal, state and local government web resources and services.